Weather History for VIJP - July, 2013

Change the Weather History Date:

Tuesday, July 9, 2013

  Actual Average Record
Temperature  
Mean Temperature 81 °F -  
Max Temperature 88 °F - - ()
Min Temperature 74 °F - - ()
Cooling Degree Days 16    
Growing Degree Days 31 (Base 50)    
Moisture  
Dew Point 78 °F    
Average Humidity 88    
Maximum Humidity 100    
Minimum Humidity 75    
Precipitation  
Precipitation 0.00 in - - ()
Sea Level Pressure  
Sea Level Pressure 29.52 in    
Wind  
Wind Speed 5 mph ()    
Max Wind Speed 12 mph    
Max Gust Speed -    
Visibility 1.8 miles    
Events Rain    
T = Trace of Precipitation, MM = Missing Value Source: Averaged Metar Reports

Daily Weather History Graph

Daily Weather History Graph

Search for Another Location

Airport or City:

Trip Planner

Search our weather history database for the weather conditions in past years. The results will help you decide how hot, cold, wet, or windy it might be!

Date:

Astronomy

Jul. 09, 2013 Rise Set
Actual Time 5:39 AM IST 7:24 PM IST
Civil Twilight 5:13 AM IST 7:50 PM IST
Nautical Twilight 4:42 AM IST 8:21 PM IST
Astronomical Twilight 4:09 AM IST 8:54 PM IST
Moon 6:28 AM IST (7/9) 7:58 PM IST (7/9)
Length of Visible Light 14h 36m
Length of Day
13h 44m
New Moon, 1% of the Moon is Illuminated
Jul 9
New Moon
Jul 16
First Quarter
Jul 22
Full
Jul 29
Last Quarter
Aug 7
New

Hourly Weather History & Observations

Time (IST) Temp. Heat Index Dew Point Humidity Pressure Visibility Wind Dir Wind Speed Gust Speed Precip Events Conditions
12:00 AM 75.2 °F - 75.2 °F 100% 29.56 in 1.6 mi Variable 1.2 mph - N/A   Mostly Cloudy
1:00 AM 75.2 °F - 75.2 °F 100% 29.56 in 1.6 mi West 5.8 mph - N/A   Mostly Cloudy
2:30 AM 76 °F - 74 °F 92% 29.51 in 1 mi East 6.9 mph - -   Mist
3:00 AM 77.0 °F - 75.2 °F 94% 29.56 in 1.6 mi Calm Calm - N/A   Mostly Cloudy
4:00 AM 75.2 °F - 75.2 °F 100% 29.53 in 1.6 mi NNW 4.6 mph - N/A Rain Light Rain
5:30 AM 77 °F - - % 29.48 in 1 mi NW 5.8 mph - - Rain Light Rain
5:30 AM 77.0 °F - 75.2 °F 94% 29.53 in 1.6 mi NW 5.8 mph - N/A Rain Light Rain
6:00 AM 77.0 °F - 75.2 °F 94% 29.53 in 1.6 mi NW 3.5 mph - N/A   Mostly Cloudy
6:30 AM 77.0 °F - 75.2 °F 94% 29.53 in 1.6 mi West 9.2 mph - N/A   Mostly Cloudy
7:00 AM 78.8 °F - 75.2 °F 89% 29.53 in 1.6 mi West 9.2 mph - N/A   Mostly Cloudy
8:00 AM 80.6 °F 87.1 °F 77.0 °F 89% 29.56 in 1.6 mi West 9.2 mph - N/A   Mostly Cloudy
8:30 AM 80 °F - 78 °F 91% 29.50 in 1 mi West 9.2 mph - -   Mist
9:00 AM 82.4 °F 92.4 °F 78.8 °F 89% 29.59 in 1.6 mi West 8.1 mph - N/A   Mostly Cloudy
10:00 AM 84.2 °F 94.1 °F 77.0 °F 79% 29.59 in 1.6 mi West 11.5 mph - N/A   Mostly Cloudy
11:30 AM 84 °F - 79 °F 81% 29.52 in 2 mi West 6.9 mph - - Rain Light Drizzle
12:00 PM 84.2 °F 96.1 °F 78.8 °F 84% 29.59 in 2.5 mi West 8.1 mph - N/A   Drizzle
1:00 PM 84.2 °F 96.1 °F 78.8 °F 84% 29.59 in 2.5 mi WSW 8.1 mph - N/A   Drizzle
2:00 PM 86.0 °F 101.9 °F 80.6 °F 84% 29.56 in 2.5 mi SW 8.1 mph - N/A   Haze
2:30 PM 86 °F - 80 °F 78% 29.48 in 2 mi SW 4.6 mph - -   Haze
3:00 PM 87.8 °F 104.9 °F 80.6 °F 79% 29.53 in 2.5 mi WSW 6.9 mph - N/A   Haze
4:00 PM 87.8 °F 104.9 °F 80.6 °F 79% 29.50 in 2.5 mi SW 6.9 mph - N/A   Haze
5:00 PM 86.0 °F 101.9 °F 80.6 °F 84% 29.47 in 2.5 mi SSW 6.9 mph - N/A   Haze
5:30 PM 87 °F - 80 °F 75% 29.41 in 2 mi South 4.6 mph - -   Haze
6:00 PM 86.0 °F 101.9 °F 80.6 °F 84% 29.47 in 2.5 mi SSW 6.9 mph - N/A   Haze
7:00 PM 86.0 °F 101.9 °F 80.6 °F 84% 29.47 in 2.2 mi South 4.6 mph - N/A   Haze
8:30 PM 84 °F - 79 °F 81% 29.44 in 1 mi WSW 4.6 mph - -   Mist
9:00 PM 84.2 °F 96.1 °F 78.8 °F 84% 29.53 in 1.9 mi SW 4.6 mph - N/A   Scattered Clouds
10:00 PM 82.4 °F 94.0 °F 80.6 °F 94% 29.53 in 1.9 mi SW 4.6 mph - N/A   Scattered Clouds
11:00 PM 82.4 °F 94.0 °F 80.6 °F 94% 29.53 in 1.9 mi SSW 3.5 mph - N/A   Scattered Clouds